Home > Weather > Tegucigalpa > Past weeks

Flag for Honduras Past Weather in Tegucigalpa, Honduras — Yesterday and Last 2 Weeks

Now
79 °F

Broken clouds.


Feels Like: 81 °F
Forecast: 67 / 82 °F
Wind: 12 mph from North

Location: Tegucigalpa Airport

Current Time: Jun 27, 2016 at 12:47:46 PM

Latest Report: Jun 27, 2016 at 12:00 PM


Visibility: N/A

Pressure: 30.09 "Hg (26.68 "Hg at 1054m altitude)

Humidity: 74%

Dew Point: 70 °F

Location of TegucigalpaLocation

Past Weather in Tegucigalpa — Graph

°F

Tegucigalpa Temperature Yesterday

Maximum temperature yesterday: 82 °F (at 3:00 PM)
Minimum temperature yesterday: 68 °F (at 12:00 AM)
Average temperature yesterday: 74 °F

High & Low Weather Summary for the Past Weeks

 TemperatureHumidityPressure
High88 °F (Jun 15, 1:00 PM)100% (Jun 13, 1:00 AM)30.21 "Hg (Jun 13, 1:00 AM)
Low59 °F (Jun 14, 6:00 AM)40% (Jun 13, 1:00 PM)29.83 "Hg (Jun 14, 4:00 AM)
Average73 °F80%30.11 "Hg
* Reported Jun 12 11:00 AM — Jun 27 11:00 AM, Tegucigalpa, Weather by CustomWeather, © 2016

Note: Actual official high and low records may vary slightly from our data, if they occured in-between our weather recording intervals... More about our weather records

Advertising

Tegucigalpa Weather History for the Previous 24 Hours

Scroll right to see more
 ConditionsComfort  
Time TempWeatherWind HumidityBarometerVisibility
11:00 AM
Mon, Jun 27
75 °FDrizzle. Partly sunny.2 mph78%30.12 "Hg4 mi
10:00 AM75 °FPartly sunny.7 mph83%30.09 "Hg6 mi
9:00 AM73 °FDrizzle. Partly sunny.12 mph83%30.09 "Hg4 mi
8:00 AM72 °FPartly sunny.12 mph83%30.09 "Hg4 mi
7:00 AM70 °FBroken clouds.7 mph94%30.09 "Hg4 mi
6:00 AM68 °FPartly sunny.7 mph94%30.07 "Hg4 mi
5:00 AM68 °FPassing clouds.No wind94%30.07 "HgN/A
4:00 AM68 °FPassing clouds.5 mph94%30.07 "HgN/A
3:00 AM68 °FPartly cloudy.2 mph94%30.07 "HgN/A
2:00 AM70 °FPassing clouds.No wind88%30.07 "HgN/A
1:00 AM70 °FPassing clouds.7 mph88%30.07 "HgN/A
12:00 AM70 °FPassing clouds.7 mph94%30.09 "HgN/A
11:00 PM
Sun, Jun 26
72 °FPassing clouds.9 mph88%30.12 "HgN/A
10:00 PM72 °FPassing clouds.9 mph88%30.09 "HgN/A
9:00 PM72 °FPassing clouds.9 mph88%30.09 "HgN/A
8:00 PM72 °FPassing clouds.7 mph83%30.09 "HgN/A
7:00 PM73 °FPassing clouds.12 mph74%30.07 "HgN/A
6:00 PM75 °FBroken clouds.7 mph69%30.07 "HgN/A
5:00 PM77 °FBroken clouds.12 mph65%30.07 "HgN/A
4:00 PM77 °FScattered clouds.7 mph69%30.04 "HgN/A
3:00 PM82 °FThunderstorms. Scattered clouds.12 mph62%30.07 "HgN/A
2:00 PM81 °FPartly sunny.9 mph66%30.07 "HgN/A
1:00 PM81 °FBroken clouds.5 mph70%30.09 "HgN/A
12:00 PM79 °FPartly sunny.6 mph70%30.09 "HgN/A
Weather by CustomWeather, © 2016

See weather overviewHow to use our weather pages